This is the latest recevied weather packets stored in our database for station/object K2NV. If no packets are shown the sender has not sent any weather packets the latest 1 day(s).
| Time | Temp. | Humidity | Pressure | Rain* | Wind** | Luminosity | Snow |
|---|---|---|---|---|---|---|---|
| 1777995257 | 17.78° C | 67% | 1003.1 hPa | 0 mm | 6.71 m/s, 256° | - | - |
| 1777994956 | 17.78° C | 67% | 1003 hPa | 0 mm | 6.71 m/s, 259° | - | - |
| 1777994657 | 18.33° C | 66% | 1003.1 hPa | 0 mm | 8.94 m/s, 259° | - | - |
| 1777994358 | 18.33° C | 66% | 1002.8 hPa | 0 mm | 7.6 m/s, 261° | - | - |
| 1777994057 | 17.78° C | 68% | 1002.4 hPa | 0 mm | 5.81 m/s, 251° | - | - |
| 1777993757 | 17.78° C | 69% | 1002.2 hPa | 0 mm | 5.36 m/s, 246° | - | - |
| 1777993458 | 17.22° C | 70% | 1002.1 hPa | 0 mm | 8.05 m/s, 250° | - | - |
| 1777993157 | 17.22° C | 71% | 1001.9 hPa | 0 mm | 7.6 m/s, 256° | - | - |
| 1777992857 | 16.67° C | 71% | 1001.8 hPa | 0 mm | 7.15 m/s, 251° | - | - |
| 1777992558 | 16.67° C | 72% | 1001.8 hPa | 0 mm | 5.81 m/s, 250° | - | - |
| 1777991956 | 16.11° C | 72% | 1001.4 hPa | 0 mm | 6.26 m/s, 245° | - | - |
| 1777991658 | 16.11° C | 72% | 1001.5 hPa | 0 mm | 5.81 m/s, 238° | - | - |
| 1777991357 | 16.11° C | 72% | 1001.6 hPa | 0 mm | 5.36 m/s, 246° | - | - |
| 1777991056 | 16.11° C | 72% | 1001.6 hPa | 0 mm | 6.26 m/s, 261° | - | - |
| 1777990758 | 16.11° C | 71% | 1001.7 hPa | 0 mm | 5.81 m/s, 249° | - | - |
| 1777990457 | 16.67° C | 71% | 1001.8 hPa | 0 mm | 5.81 m/s, 247° | - | - |
| 1777990157 | 16.67° C | 71% | 1001.8 hPa | 0 mm | 6.26 m/s, 245° | - | - |
| 1777989856 | 16.67° C | 71% | 1001.8 hPa | 0 mm | 7.6 m/s, 257° | - | - |
| 1777989557 | 16.67° C | 71% | 1001.7 hPa | 0 mm | 7.15 m/s, 260° | - | - |
| 1777989256 | 16.67° C | 71% | 1001.8 hPa | 0 mm | 5.81 m/s, 249° | - | - |
| 1777988956 | 16.11° C | 71% | 1001.7 hPa | 0 mm | 5.81 m/s, 251° | - | - |
| 1777988657 | 16.11° C | 71% | 1001.8 hPa | 0 mm | 6.26 m/s, 240° | - | - |
| 1777988360 | 16.11° C | 71% | 1001.8 hPa | 0 mm | 6.71 m/s, 249° | - | - |
| 1777988057 | 16.11° C | 71% | 1001.8 hPa | 0 mm | 6.26 m/s, 257° | - | - |
| 1777987758 | 16.67° C | 71% | 1001.8 hPa | 0 mm | 6.71 m/s, 253° | - | - |
* Rain latest hour (hover to see other rain measurements)
** Current wind speed in m/s (hover to see current wind gust speed)